Regional Weather Roundup
Issued by NWS

Home | Current Version | Previous Version | Text Only | Print | Product List | Glossary On
Versions: 1 2 3 4 5 6 7 8 9 10 11 12 13 14 15 16 17 18 19 20 21 22 23 24 25 26 27 28 29 30 31 32 33 34 35 36 37 38 39 40 41 42 43 44 45 46 47 48 49 50
000
ASCA44 KEWX 242320
RWRMX

LATIN AMERICA AND CARIBBEAN REGIONAL WEATHER ROUNDUP
NATIONAL WEATHER SERVICE AUSTIN/SAN ANTONIO TX
500 PM CST TUE JAN 24 2017

NOTE: "FAIR" INDICATED FEW OR NO CLOUDS BELOW 12,000 FEET WITH NO
SIGNIFICANT WEATHER AND/OR OBSTRUCTIONS TO VISIBILITY.

BAJA CALIFORNIA

CITY           SKY/WX    TMP DP  RH WIND       PRES   REMARKS
LORETO         PTSUNNY   66  54  63 NE12      29.92S
LA PAZ         PTSUNNY   72  55  56 NW7       29.93F
MEXICALI       PTSUNNY   59  32  36 W9        29.99R
S.J. DEL CABO  PTSUNNY   75  57  53 SE8       29.92S
TIJUANA        PTSUNNY   52  41  66 CALM      30.05S

NORTHWESTERN MEXICO

CITY           SKY/WX    TMP DP  RH WIND       PRES   REMARKS
CULIACAN       MOSUNNY   82  64  54 S9        29.91S
DURANGO        SUNNY     70  28  21 S22       30.09R
GUAYMAS        MOSUNNY   66  48  52 W14       29.90S
HERMOSILLO     PTSUNNY   66  43  42 W6        29.96S
CD. JUAREZ     MOSUNNY   54  32  43 W14       29.75S
LOS MOCHIS       N/A    N/A N/A N/A MISG        N/A
OBREGON        PTSUNNY   70  46  43 W9        29.90F

NORTHEASTERN MEXICO

CITY           SKY/WX    TMP DP  RH WIND       PRES   REMARKS
CHIHUAHUA      MOSUNNY   73  28  19 SW39      29.80R
MATAMOROS      MOSUNNY   77  68  73 S25G37    29.65F
MONCLOVA       PTSUNNY   91  39  16 SW15      29.66S
MONTERREY      MOSUNNY   90  34  13 SE8       29.61R
NUEVO LAREDO   MOSUNNY   91  46  21 SE9       29.58F
PIEDRAS NEGRAS   N/A    N/A N/A N/A MISG        N/A
REYNOSA        MOSUNNY   81  59  47 SE17G29   29.62R
SALTILLO       SUNNY     82  45  26 S14       29.89S
TORREON        MOSUNNY   88  27  11 SW12      29.82S
CD. VICTORIA   SUNNY     84  52  32 S14       29.64F

WESTERN MEXICO

CITY           SKY/WX    TMP DP  RH WIND       PRES   REMARKS
AGUASCALIENTES SUNNY     75  23  14 SW17      30.12S
COLIMA         MOSUNNY   77  61  57 W12       30.00S
DEL BAJIO      SUNNY     77  37  24 W12       30.16S
GUADALAJARA    SUNNY     77  34  20 S12       30.07S
MANZANILLO     SUNNY     82  70  65 S12       29.86S
MAZATLAN       SUNNY     81  68  65 SW12      29.93F
P. VALLARTA    PTSUNNY   77  70  78 S9        29.91R
URUAPAN        SUNNY     72  46  40 SE9       30.15S
ZACATECAS      SUNNY     72  25  17 SW23G35   30.12S

CENTRAL MEXICO

CITY           SKY/WX    TMP DP  RH WIND       PRES   REMARKS
CUERNAVACA     MOSUNNY   81  45  28 SE9       30.04S
MEXICO CITY    SUNNY     73  37  27 SE14      30.18R
MORELIA        SUNNY     72  41  33 S12       30.14R
POZA RICA      SUNNY     84  66  54 NE7       29.77F
PUEBLA         SUNNY     66  37  34 S26       30.21S
QUERETARO      SUNNY     73  41  31 W16       30.15R
S. LUIS POTOSI SUNNY     79  19  11 SW12      30.04F
TAMPICO        SUNNY     79  66  65 SE12      29.72S
TOLUCA         MOSUNNY   64  39  39 S16       30.29R

SOUTHERN MEXICO

CITY           SKY/WX    TMP DP  RH WIND       PRES   REMARKS
ACAPULCO       SUNNY     82  72  69 SW9       29.86S
B. DE HUATULCO   N/A    N/A N/A N/A MISG        N/A
OAXACA         SUNNY     79  34  19 S20       30.09R
P. ESCONDIDO     N/A    N/A N/A N/A MISG        N/A
VERACRUZ       SUNNY     79  66  65 SE12      29.78S
ZIHUATANEJO    SUNNY     86  72  62 SW5       29.88F HX  92

YUCATAN PENINSULA

CITY           SKY/WX    TMP DP  RH WIND       PRES   REMARKS
CAMPECHE       CLEAR     79  64  61 NW12      29.85R
CANCUN         CLEAR     73  61  64 NE8       29.94R
CHETUMAL       CLEAR     77  61  57 SE12      29.92R
CD. DEL CARMEN SUNNY     81  63  54 NE7       29.85S
COZUMEL        CLEAR     75  61  60 E8        29.92R
MERIDA         CLEAR     86  55  35 W9        29.89R
MINATITLAN     SUNNY     82  68  61 CALM      29.80R
TAPACHULA      SUNNY     86  70  58 W7        29.86S HX  90
TUX. GUTIERREZ SUNNY     88  52  29 NE6       29.87R
VILLAHERMOSA   SUNNY     82  61  47 E12       29.85S

CENTRAL AMERICA

CITY           SKY/WX    TMP DP  RH WIND       PRES   REMARKS
BELIZE CITY    CLEAR     77  66  69 SE7       29.92R
MANAGUA        PTCLDY    88  66  48 SE14      29.83R HX  90

CARIBBEAN

CITY           SKY/WX    TMP DP  RH WIND       PRES   REMARKS
ARUBA          PTCLDY    81  75  83 NE9       29.89S
CURACAO        PTCLDY    81  75  83 NE9       29.92R
KINGSTON       MOCLDY    79  68  69 N13       29.89S
NASSAU         PTCLDY    72  55  56 W10       29.93
SAN JUAN       PTCLDY    82  66  57 S6        29.93R
SANTO DOMINGO  MOCLDY    81  75  83 SW12      29.89S
ST. CROIX      PTCLDY    79  73  83 S5        29.96R
ST. KITTS      MOCLDY    79  72  78 S7        29.97R
ST. THOMAS     PTCLDY    79  75  89 S12       29.94

$$




USA.gov is the U.S. government's official web portal to all federal, state and local government web resources and services.